Location: Ferchesar
(52.6477°N, 12.4298°E)
Time: 04:36:24
(UTC+01:00)

Vanguard 3 - Pass Details

Date: 14 December 2021
Orbit: 508 x 3260 km, 33.3° (Epoch: 21 January)

Event Time Altitude Azimuth Distance (km) Brightness Sun altitude
Rises 03:47:51 0° 254° (WSW) 6,510 - -38.8°
Reaches altitude 10° 03:52:14 10° 247° (WSW) 5,759 - -38.2°
Exits shadow 04:03:57 36° 212° (SSW) 4,363 10.4 -36.4°
Maximum altitude 04:08:41 40° 187° (S) 4,211 10.5 -35.7°
Drops below altitude 10° 04:25:03 10° 127° (SE) 5,729 12.0 -33.3°
Sets 04:29:25 0° 120° (ESE) 6,473 12.5 -32.6°
